Rechercher aéroport 
image banner adimage banner ad
image banner ad

EVAD - Adazi

Situé à Adazi, Latvia

ICAO - EVAD, IATA -

Données fournies par Airmate  

Information générale

Coordonnées: N57°5'55" E24°15'60"
Élévation : 8 feet MSL.
Variation magnétique : 5° East
Évalué:
Voir évaluations: [VIEW]


Voir autres Aéroports à Riga District

Données opérationnelles

Accessible au public
Heure actuelle UTC:
Heure actuelle locale:
Météo à : EVRA - Riga ( 26 km )
METAR: EVRA 142150Z 23001KT 3700 1000 R18/P2000N MIFG BR FEW002 02/01 Q1020 R18/190095 NOSIG
TAF: TAF EVRA 142001Z 1421/1521 VRB02KT 7000 SCT030 TEMPO 1421/1506 0600 FG VV002 BECMG 1510/1512 08007KT TEMPO 1517/1521 4000 -RA BR BKN008 BKN015
Voir NOTAMs / SUP AIP / TFR affectant cet aéroport [VIEW]
Fréquences de communication: [VIEW]

Pistes:

Identifiant RWYQFULongueur (ft)Largeur (ft)SurfaceLDA (ft)
15155°193649ASP+GRS1667
33335°193649ASP+GRS1568

Coordonnées de l'aéroport

Adresse: Adazi Latvia

Autres services d'aviation

Écoles de pilotage

Tmg

Tmg
info@tmg-ato.com+37129259085

Clubs d'aviation (sans but lucratif)

First Fly

First Fly

Vue satellite de EVAD